Time,TemperatureF,DewpointF,PressureIn,WindDirection,WindDirectionDegrees,WindSpeedMPH,WindSpeedGustMPH,Humidity,HourlyPrecipIn,Conditions,Clouds,dailyrainin,SoftwareType,DateUTC
2015-02-28 00:03:00,17.3,1.9,30.62,NW,305,4.0,10.0,50,0.00,,,0.01,HR-IXPWINDi_r2_v1.2.,2015-02-28 05:03:00,
2015-02-28 00:08:00,17.2,1.8,30.62,NNW,329,5.0,9.0,50,0.00,,,0.01,HR-IXPWINDi_r2_v1.2.,2015-02-28 05:08:00,
2015-02-28 00:13:00,17.1,1.7,30.62,NW,317,4.0,9.0,50,0.00,,,0.01,HR-IXPWINDi_r2_v1.2.,2015-02-28 05:13:00,
2015-02-28 00:18:00,16.9,2.0,30.62,NW,317,6.0,8.0,51,0.00,,,0.01,HR-IXPWINDi_r2_v1.2.,2015-02-28 05:18:00,
2015-02-28 00:23:00,16.8,1.9,30.62,NW,317,4.0,9.0,51,0.00,,,0.00,HR-IXPWINDi_r2_v1.2.,2015-02-28 05:23:00,
2015-02-28 00:28:00,16.7,1.8,30.63,NW,314,5.0,9.0,51,0.00,,,0.00,HR-IXPWINDi_r2_v1.2.,2015-02-28 05:28:00,
2015-02-28 00:33:00,16.5,2.0,30.63,NW,311,3.0,7.0,52,0.00,,,0.00,HR-IXPWINDi_r2_v1.2.,2015-02-28 05:33:00,
2015-02-28 00:38:00,16.3,1.8,30.63,NW,322,6.0,9.0,52,0.00,,,0.00,HR-IXPWINDi_r2_v1.2.,2015-02-28 05:38:00,
2015-02-28 00:43:00,16.1,2.1,30.63,NNW,346,6.0,9.0,53,0.00,,,0.00,HR-IXPWINDi_r2_v1.2.,2015-02-28 05:43:00,
2015-02-28 00:48:00,16.0,2.0,30.63,NW,312,2.0,8.0,53,0.00,,,0.00,HR-IXPWINDi_r2_v1.2.,2015-02-28 05:48:00,
2015-02-28 00:53:00,15.7,1.7,30.64,NW,321,4.0,8.0,53,0.00,,,0.00,HR-IXPWINDi_r2_v1.2.,2015-02-28 05:53:00,
2015-02-28 00:58:00,15.6,2.0,30.64,NW,311,3.0,8.0,54,0.00,,,0.00,HR-IXPWINDi_r2_v1.2.,2015-02-28 05:58:00,
2015-02-28 01:03:00,15.5,1.9,30.64,NW,314,5.0,10.0,54,0.00,,,0.00,HR-IXPWINDi_r2_v1.2.,2015-02-28 06:03:00,
2015-02-28 01:08:00,15.3,1.7,30.65,NW,317,8.0,10.0,54,0.00,,,0.00,HR-IXPWINDi_r2_v1.2.,2015-02-28 06:08:00,
2015-02-28 01:13:00,15.2,2.0,30.65,NW,312,3.0,10.0,55,0.00,,,0.00,HR-IXPWINDi_r2_v1.2.,2015-02-28 06:13:00,
2015-02-28 01:18:00,15.1,1.9,30.65,WNW,296,5.0,8.0,55,0.00,,,0.00,HR-IXPWINDi_r2_v1.2.,2015-02-28 06:18:00,
2015-02-28 01:23:00,15.1,1.9,30.65,NW,307,7.0,9.0,55,0.00,,,0.00,HR-IXPWINDi_r2_v1.2.,2015-02-28 06:23:00,
2015-02-28 01:28:00,15.0,1.8,30.66,NW,324,5.0,10.0,55,0.00,,,0.00,HR-IXPWINDi_r2_v1.2.,2015-02-28 06:28:00,
2015-02-28 01:33:00,14.9,2.1,30.66,NW,324,6.0,10.0,56,0.00,,,0.00,HR-IXPWINDi_r2_v1.2.,2015-02-28 06:33:00,
2015-02-28 01:38:00,14.7,1.9,30.66,WNW,300,2.0,9.0,56,0.00,,,0.00,HR-IXPWINDi_r2_v1.2.,2015-02-28 06:38:00,
2015-02-28 01:43:00,14.7,1.9,30.65,NW,307,3.0,9.0,56,0.00,,,0.00,HR-IXPWINDi_r2_v1.2.,2015-02-28 06:43:00,
2015-02-28 01:48:00,14.5,2.1,30.65,North,360,7.0,10.0,57,0.00,,,0.00,HR-IXPWINDi_r2_v1.2.,2015-02-28 06:48:00,
2015-02-28 01:53:00,14.4,2.0,30.65,NNW,336,6.0,11.0,57,0.00,,,0.00,HR-IXPWINDi_r2_v1.2.,2015-02-28 06:53:00,
2015-02-28 01:58:00,14.2,1.8,30.65,NW,319,4.0,11.0,57,0.00,,,0.00,HR-IXPWINDi_r2_v1.2.,2015-02-28 06:58:00,
2015-02-28 02:03:00,14.2,2.2,30.65,NNW,335,5.0,13.0,58,0.00,,,0.00,HR-IXPWINDi_r2_v1.2.,2015-02-28 07:03:00,
2015-02-28 02:08:00,14.0,2.0,30.65,NNW,345,5.0,13.0,58,0.00,,,0.00,HR-IXPWINDi_r2_v1.2.,2015-02-28 07:08:00,
2015-02-28 02:13:00,13.9,1.9,30.65,NW,317,5.0,10.0,58,0.00,,,0.00,HR-IXPWINDi_r2_v1.2.,2015-02-28 07:13:00,
2015-02-28 02:18:00,13.8,1.8,30.65,NNW,334,11.0,11.0,58,0.00,,,0.00,HR-IXPWINDi_r2_v1.2.,2015-02-28 07:18:00,
2015-02-28 02:23:00,13.7,1.7,30.65,NNW,339,7.0,11.0,58,0.00,,,0.00,HR-IXPWINDi_r2_v1.2.,2015-02-28 07:23:00,
2015-02-28 02:28:00,13.6,2.0,30.65,NNW,329,4.0,11.0,59,0.00,,,0.00,HR-IXPWINDi_r2_v1.2.,2015-02-28 07:28:00,
2015-02-28 02:33:00,13.4,1.8,30.65,NW,324,10.0,11.0,59,0.00,,,0.00,HR-IXPWINDi_r2_v1.2.,2015-02-28 07:33:00,
2015-02-28 02:38:00,13.3,1.7,30.66,NNW,343,9.0,11.0,59,0.00,,,0.00,HR-IXPWINDi_r2_v1.2.,2015-02-28 07:38:00,
2015-02-28 02:43:00,13.3,1.7,30.66,NNW,329,4.0,15.0,59,0.00,,,0.00,HR-IXPWINDi_r2_v1.2.,2015-02-28 07:43:00,
2015-02-28 02:48:00,13.1,1.6,30.66,NW,325,9.0,15.0,59,0.00,,,0.00,HR-IXPWINDi_r2_v1.2.,2015-02-28 07:48:00,
2015-02-28 02:53:00,13.0,1.8,30.66,NNW,341,6.0,12.0,60,0.00,,,0.00,HR-IXPWINDi_r2_v1.2.,2015-02-28 07:53:00,
2015-02-28 02:58:00,12.9,1.7,30.66,North,2,4.0,12.0,60,0.00,,,0.00,HR-IXPWINDi_r2_v1.2.,2015-02-28 07:58:00,
2015-02-28 03:03:00,12.9,1.7,30.66,North,7,6.0,12.0,60,0.00,,,0.00,HR-IXPWINDi_r2_v1.2.,2015-02-28 08:03:00,
2015-02-28 03:08:00,12.8,1.6,30.67,North,350,3.0,11.0,60,0.00,,,0.00,HR-IXPWINDi_r2_v1.2.,2015-02-28 08:08:00,
2015-02-28 03:13:00,12.7,1.5,30.67,NNW,336,4.0,10.0,60,0.00,,,0.00,HR-IXPWINDi_r2_v1.2.,2015-02-28 08:13:00,
2015-02-28 03:18:00,12.6,1.4,30.67,NNW,341,6.0,10.0,60,0.00,,,0.00,HR-IXPWINDi_r2_v1.2.,2015-02-28 08:18:00,
2015-02-28 03:23:00,12.4,1.3,30.67,NNW,339,5.0,8.0,60,0.00,,,0.00,HR-IXPWINDi_r2_v1.2.,2015-02-28 08:23:00,
2015-02-28 03:28:00,12.3,1.5,30.67,NW,312,6.0,10.0,61,0.00,,,0.00,HR-IXPWINDi_r2_v1.2.,2015-02-28 08:28:00,
2015-02-28 03:33:00,12.2,1.4,30.67,NNW,343,5.0,10.0,61,0.00,,,0.00,HR-IXPWINDi_r2_v1.2.,2015-02-28 08:33:00,
2015-02-28 03:38:00,12.2,1.4,30.67,NW,307,4.0,10.0,61,0.00,,,0.00,HR-IXPWINDi_r2_v1.2.,2015-02-28 08:38:00,
2015-02-28 03:43:00,12.1,1.3,30.67,NNW,335,5.0,10.0,61,0.00,,,0.00,HR-IXPWINDi_r2_v1.2.,2015-02-28 08:43:00,
2015-02-28 03:48:00,12.1,1.3,30.68,NNW,342,6.0,10.0,61,0.00,,,0.00,HR-IXPWINDi_r2_v1.2.,2015-02-28 08:48:00,
2015-02-28 03:53:00,12.0,1.2,30.68,NW,318,3.0,11.0,61,0.00,,,0.00,HR-IXPWINDi_r2_v1.2.,2015-02-28 08:53:00,
2015-02-28 03:58:00,12.0,1.2,30.68,NNW,334,7.0,11.0,61,0.00,,,0.00,HR-IXPWINDi_r2_v1.2.,2015-02-28 08:58:00,
2015-02-28 04:03:00,12.0,1.2,30.69,NW,324,6.0,11.0,61,0.00,,,0.00,HR-IXPWINDi_r2_v1.2.,2015-02-28 09:03:00,
2015-02-28 04:08:00,11.8,1.4,30.69,NNW,336,7.0,11.0,62,0.00,,,0.00,HR-IXPWINDi_r2_v1.2.,2015-02-28 09:08:00,
2015-02-28 04:13:00,11.7,1.3,30.70,NW,322,9.0,11.0,62,0.00,,,0.00,HR-IXPWINDi_r2_v1.2.,2015-02-28 09:13:00,
2015-02-28 04:18:00,11.5,1.1,30.70,NNW,347,5.0,11.0,62,0.00,,,0.00,HR-IXPWINDi_r2_v1.2.,2015-02-28 09:18:00,
2015-02-28 04:23:00,11.4,1.0,30.70,NNW,345,5.0,11.0,62,0.00,,,0.00,HR-IXPWINDi_r2_v1.2.,2015-02-28 09:23:00,
2015-02-28 04:28:00,11.3,1.3,30.71,North,350,4.0,10.0,63,0.00,,,0.00,HR-IXPWINDi_r2_v1.2.,2015-02-28 09:28:00,
2015-02-28 04:33:00,11.2,1.2,30.71,NW,305,4.0,9.0,63,0.00,,,0.00,HR-IXPWINDi_r2_v1.2.,2015-02-28 09:33:00,
2015-02-28 04:38:00,11.1,1.1,30.71,NNW,347,4.0,8.0,63,0.00,,,0.00,HR-IXPWINDi_r2_v1.2.,2015-02-28 09:38:00,
2015-02-28 04:43:00,11.0,1.0,30.71,North,359,6.0,11.0,63,0.00,,,0.00,HR-IXPWINDi_r2_v1.2.,2015-02-28 09:43:00,
2015-02-28 04:48:00,11.0,1.0,30.72,NNW,334,3.0,11.0,63,0.00,,,0.00,HR-IXPWINDi_r2_v1.2.,2015-02-28 09:48:00,
2015-02-28 04:53:00,10.8,0.8,30.72,NNW,339,2.0,8.0,63,0.00,,,0.00,HR-IXPWINDi_r2_v1.2.,2015-02-28 09:53:00,
2015-02-28 04:58:00,10.7,0.7,30.72,NW,321,1.0,8.0,63,0.00,,,0.00,HR-IXPWINDi_r2_v1.2.,2015-02-28 09:58:00,
2015-02-28 05:03:00,10.3,0.6,30.73,North,9,2.0,5.0,64,0.00,,,0.00,HR-IXPWINDi_r2_v1.2.,2015-02-28 10:03:00,
2015-02-28 05:08:00,10.1,0.8,30.73,NNE,21,2.0,4.0,65,0.00,,,0.00,HR-IXPWINDi_r2_v1.2.,2015-02-28 10:08:00,
2015-02-28 05:13:00,10.0,0.7,30.74,NNW,335,1.0,4.0,65,0.00,,,0.00,HR-IXPWINDi_r2_v1.2.,2015-02-28 10:13:00,
2015-02-28 05:18:00,9.8,0.5,30.74,NNE,14,2.0,4.0,65,0.00,,,0.00,HR-IXPWINDi_r2_v1.2.,2015-02-28 10:18:00,
2015-02-28 05:23:00,9.8,0.5,30.74,NW,320,0.0,6.0,65,0.00,,,0.00,HR-IXPWINDi_r2_v1.2.,2015-02-28 10:23:00,
2015-02-28 05:28:00,9.7,0.4,30.74,NNW,341,3.0,6.0,65,0.00,,,0.00,HR-IXPWINDi_r2_v1.2.,2015-02-28 10:28:00,
2015-02-28 05:33:00,9.8,0.5,30.74,NNW,331,4.0,7.0,65,0.00,,,0.00,HR-IXPWINDi_r2_v1.2.,2015-02-28 10:33:00,
2015-02-28 05:38:00,9.9,0.6,30.74,WNW,296,5.0,7.0,65,0.00,,,0.00,HR-IXPWINDi_r2_v1.2.,2015-02-28 10:38:00,
2015-02-28 05:43:00,10.1,0.5,30.75,NNW,338,3.0,8.0,64,0.00,,,0.00,HR-IXPWINDi_r2_v1.2.,2015-02-28 10:43:00,
2015-02-28 05:48:00,10.2,0.5,30.75,North,349,5.0,8.0,64,0.00,,,0.00,HR-IXPWINDi_r2_v1.2.,2015-02-28 10:48:00,
2015-02-28 05:53:00,10.3,0.6,30.75,NNW,329,6.0,9.0,64,0.00,,,0.00,HR-IXPWINDi_r2_v1.2.,2015-02-28 10:53:00,
2015-02-28 05:58:00,10.3,0.6,30.75,NNW,343,7.0,10.0,64,0.00,,,0.00,HR-IXPWINDi_r2_v1.2.,2015-02-28 10:58:00,
2015-02-28 06:03:00,10.3,0.3,30.75,NNW,345,6.0,10.0,63,0.00,,,0.00,HR-IXPWINDi_r2_v1.2.,2015-02-28 11:03:00,
2015-02-28 06:08:00,10.3,0.3,30.76,North,357,3.0,9.0,63,0.00,,,0.00,HR-IXPWINDi_r2_v1.2.,2015-02-28 11:08:00,
2015-02-28 06:13:00,10.0,0.4,30.76,NNW,346,6.0,7.0,64,0.00,,,0.00,HR-IXPWINDi_r2_v1.2.,2015-02-28 11:13:00,
2015-02-28 06:18:00,9.9,0.3,30.76,NNW,338,3.0,7.0,64,0.00,,,0.00,HR-IXPWINDi_r2_v1.2.,2015-02-28 11:18:00,
2015-02-28 06:23:00,9.8,0.2,30.76,NW,325,3.0,8.0,64,0.00,,,0.00,HR-IXPWINDi_r2_v1.2.,2015-02-28 11:23:00,
2015-02-28 06:28:00,9.7,0.4,30.76,NNW,341,3.0,8.0,65,0.00,,,0.00,HR-IXPWINDi_r2_v1.2.,2015-02-28 11:28:00,
2015-02-28 06:33:00,9.7,0.4,30.76,NW,322,1.0,8.0,65,0.00,,,0.00,HR-IXPWINDi_r2_v1.2.,2015-02-28 11:33:00,
2015-02-28 06:38:00,9.7,0.4,30.77,NNW,345,6.0,8.0,65,0.00,,,0.00,HR-IXPWINDi_r2_v1.2.,2015-02-28 11:38:00,
2015-02-28 06:43:00,9.9,0.3,30.77,North,355,4.0,8.0,64,0.00,,,0.00,HR-IXPWINDi_r2_v1.2.,2015-02-28 11:43:00,
2015-02-28 06:48:00,10.1,0.5,30.77,North,352,5.0,8.0,64,0.00,,,0.00,HR-IXPWINDi_r2_v1.2.,2015-02-28 11:48:00,
2015-02-28 06:53:00,10.5,0.5,30.78,NNW,345,6.0,8.0,63,0.00,,,0.00,HR-IXPWINDi_r2_v1.2.,2015-02-28 11:53:00,
2015-02-28 06:58:00,10.9,0.5,30.78,NNW,332,5.0,9.0,62,0.00,,,0.00,HR-IXPWINDi_r2_v1.2.,2015-02-28 11:58:00,
2015-02-28 07:03:00,11.2,0.8,30.78,NW,319,2.0,12.0,62,0.00,,,0.00,HR-IXPWINDi_r2_v1.2.,2015-02-28 12:03:00,
2015-02-28 07:08:00,11.4,0.7,30.78,NNW,341,6.0,12.0,61,0.00,,,0.00,HR-IXPWINDi_r2_v1.2.,2015-02-28 12:08:00,
2015-02-28 07:13:00,11.6,0.8,30.78,NNW,336,7.0,12.0,61,0.00,,,0.00,HR-IXPWINDi_r2_v1.2.,2015-02-28 12:13:00,
2015-02-28 07:18:00,11.7,0.9,30.79,NNW,333,5.0,11.0,61,0.00,,,0.00,HR-IXPWINDi_r2_v1.2.,2015-02-28 12:18:00,
2015-02-28 07:23:00,11.9,0.8,30.79,NW,314,8.0,11.0,60,0.00,,,0.00,HR-IXPWINDi_r2_v1.2.,2015-02-28 12:23:00,
2015-02-28 07:28:00,12.1,1.0,30.79,North,355,7.0,11.0,60,0.00,,,0.00,HR-IXPWINDi_r2_v1.2.,2015-02-28 12:28:00,
2015-02-28 07:33:00,12.3,0.8,30.79,NNW,346,11.0,12.0,59,0.00,,,0.00,HR-IXPWINDi_r2_v1.2.,2015-02-28 12:33:00,
2015-02-28 07:38:00,12.4,0.9,30.79,North,355,9.0,14.0,59,0.00,,,0.00,HR-IXPWINDi_r2_v1.2.,2015-02-28 12:38:00,
2015-02-28 07:43:00,12.6,1.1,30.79,NNW,335,8.0,14.0,59,0.00,,,0.00,HR-IXPWINDi_r2_v1.2.,2015-02-28 12:43:00,
2015-02-28 07:48:00,12.9,1.0,30.79,NNW,346,7.0,14.0,58,0.00,,,0.00,HR-IXPWINDi_r2_v1.2.,2015-02-28 12:48:00,
2015-02-28 07:53:00,13.2,1.3,30.80,NNW,336,6.0,14.0,58,0.00,,,0.00,HR-IXPWINDi_r2_v1.2.,2015-02-28 12:53:00,
2015-02-28 07:58:00,13.5,1.2,30.80,NNW,341,10.0,16.0,57,0.00,,,0.00,HR-IXPWINDi_r2_v1.2.,2015-02-28 12:58:00,
2015-02-28 08:03:00,13.9,1.6,30.80,North,2,5.0,16.0,57,0.00,,,0.00,HR-IXPWINDi_r2_v1.2.,2015-02-28 13:03:00,
2015-02-28 08:08:00,14.3,1.6,30.80,NNW,341,6.0,15.0,56,0.00,,,0.00,HR-IXPWINDi_r2_v1.2.,2015-02-28 13:08:00,
2015-02-28 08:13:00,14.7,1.6,30.81,NNW,341,8.0,12.0,55,0.00,,,0.00,HR-IXPWINDi_r2_v1.2.,2015-02-28 13:13:00,
2015-02-28 08:18:00,15.0,1.8,30.82,NW,323,8.0,12.0,55,0.00,,,0.00,HR-IXPWINDi_r2_v1.2.,2015-02-28 13:18:00,
2015-02-28 08:23:00,15.5,1.9,30.82,North,357,7.0,14.0,54,0.00,,,0.00,HR-IXPWINDi_r2_v1.2.,2015-02-28 13:23:00,
2015-02-28 08:28:00,15.8,2.2,30.82,NNW,330,3.0,14.0,54,0.00,,,0.00,HR-IXPWINDi_r2_v1.2.,2015-02-28 13:28:00,
2015-02-28 08:33:00,16.2,2.2,30.82,North,357,8.0,11.0,53,0.00,,,0.00,HR-IXPWINDi_r2_v1.2.,2015-02-28 13:33:00,
2015-02-28 08:38:00,16.6,2.1,30.82,North,360,5.0,15.0,52,0.00,,,0.00,HR-IXPWINDi_r2_v1.2.,2015-02-28 13:38:00,
2015-02-28 08:43:00,17.0,2.1,30.82,NNW,338,8.0,15.0,51,0.00,,,0.00,HR-IXPWINDi_r2_v1.2.,2015-02-28 13:43:00,
2015-02-28 08:48:00,17.3,1.9,30.82,NW,309,6.0,14.0,50,0.00,,,0.00,HR-IXPWINDi_r2_v1.2.,2015-02-28 13:48:00,
2015-02-28 08:53:00,17.8,2.4,30.82,NNW,345,4.0,12.0,50,0.00,,,0.00,HR-IXPWINDi_r2_v1.2.,2015-02-28 13:53:00,
2015-02-28 08:58:00,18.1,2.2,30.82,NNW,348,6.0,10.0,49,0.00,,,0.00,HR-IXPWINDi_r2_v1.2.,2015-02-28 13:58:00,
2015-02-28 09:03:00,18.4,2.1,30.83,NNE,17,5.0,10.0,48,0.00,,,0.00,HR-IXPWINDi_r2_v1.2.,2015-02-28 14:03:00,
2015-02-28 09:08:00,18.6,1.8,30.82,NNW,348,5.0,9.0,47,0.00,,,0.00,HR-IXPWINDi_r2_v1.2.,2015-02-28 14:08:00,
2015-02-28 09:13:00,18.9,2.1,30.82,NNW,339,5.0,9.0,47,0.00,,,0.00,HR-IXPWINDi_r2_v1.2.,2015-02-28 14:13:00,
2015-02-28 09:18:00,19.2,2.8,30.82,NW,324,3.0,9.0,48,0.00,,,0.00,HR-IXPWINDi_r2_v1.2.,2015-02-28 14:18:00,
2015-02-28 09:23:00,19.6,2.7,30.82,NW,324,0.0,6.0,47,0.00,,,0.00,HR-IXPWINDi_r2_v1.2.,2015-02-28 14:23:00,
2015-02-28 09:28:00,20.8,2.9,30.82,NNW,330,2.0,6.0,45,0.00,,,0.00,HR-IXPWINDi_r2_v1.2.,2015-02-28 14:28:00,
2015-02-28 09:33:00,21.3,3.8,30.82,NE,37,2.0,3.0,46,0.00,,,0.00,HR-IXPWINDi_r2_v1.2.,2015-02-28 14:33:00,
2015-02-28 09:38:00,22.1,4.1,30.82,NNW,327,1.0,4.0,45,0.00,,,0.00,HR-IXPWINDi_r2_v1.2.,2015-02-28 14:38:00,
2015-02-28 09:43:00,22.3,3.3,30.82,NE,51,3.0,6.0,43,0.00,,,0.00,HR-IXPWINDi_r2_v1.2.,2015-02-28 14:43:00,
2015-02-28 09:48:00,22.3,3.8,30.82,NNW,342,2.0,6.0,44,0.00,,,0.00,HR-IXPWINDi_r2_v1.2.,2015-02-28 14:48:00,
2015-02-28 09:53:00,22.1,3.6,30.82,NE,35,4.0,6.0,44,0.00,,,0.00,HR-IXPWINDi_r2_v1.2.,2015-02-28 14:53:00,
2015-02-28 09:58:00,22.3,3.3,30.82,NNW,331,1.0,6.0,43,0.00,,,0.00,HR-IXPWINDi_r2_v1.2.,2015-02-28 14:58:00,
2015-02-28 10:03:00,22.7,3.6,30.82,NNW,331,2.0,6.0,43,0.00,,,0.00,HR-IXPWINDi_r2_v1.2.,2015-02-28 15:03:00,
2015-02-28 10:08:00,23.0,2.9,30.83,ENE,62,1.0,6.0,41,0.00,,,0.00,HR-IXPWINDi_r2_v1.2.,2015-02-28 15:08:00,
2015-02-28 10:13:00,23.1,3.0,30.82,NE,50,4.0,5.0,41,0.00,,,0.00,HR-IXPWINDi_r2_v1.2.,2015-02-28 15:13:00,
2015-02-28 10:18:00,23.4,3.2,30.83,NNW,339,0.0,5.0,41,0.00,,,0.00,HR-IXPWINDi_r2_v1.2.,2015-02-28 15:18:00,
2015-02-28 10:23:00,23.7,3.5,30.82,SE,134,2.0,4.0,41,0.00,,,0.00,HR-IXPWINDi_r2_v1.2.,2015-02-28 15:23:00,
2015-02-28 10:28:00,23.9,3.7,30.82,SE,142,4.0,4.0,41,0.00,,,0.00,HR-IXPWINDi_r2_v1.2.,2015-02-28 15:28:00,
2015-02-28 10:33:00,23.7,5.0,30.83,SSE,163,5.0,6.0,44,0.00,,,0.00,HR-IXPWINDi_r2_v1.2.,2015-02-28 15:33:00,
2015-02-28 10:38:00,23.1,6.4,30.83,SSE,158,6.0,8.0,48,0.00,,,0.00,HR-IXPWINDi_r2_v1.2.,2015-02-28 15:38:00,
2015-02-28 10:43:00,22.6,5.9,30.83,South,170,5.0,8.0,48,0.00,,,0.00,HR-IXPWINDi_r2_v1.2.,2015-02-28 15:43:00,
2015-02-28 10:48:00,22.7,6.9,30.83,SSE,157,6.0,8.0,50,0.00,,,0.00,HR-IXPWINDi_r2_v1.2.,2015-02-28 15:48:00,
2015-02-28 10:53:00,22.7,7.3,30.83,SSE,166,4.0,8.0,51,0.00,,,0.00,HR-IXPWINDi_r2_v1.2.,2015-02-28 15:53:00,
2015-02-28 10:58:00,23.1,8.1,30.83,SSE,155,7.0,9.0,52,0.00,,,0.00,HR-IXPWINDi_r2_v1.2.,2015-02-28 15:58:00,
2015-02-28 11:03:00,23.0,6.7,30.83,SW,229,3.0,10.0,49,0.00,,,0.00,HR-IXPWINDi_r2_v1.2.,2015-02-28 16:03:00,
2015-02-28 11:08:00,23.1,7.3,30.83,South,177,6.0,10.0,50,0.00,,,0.00,HR-IXPWINDi_r2_v1.2.,2015-02-28 16:08:00,
2015-02-28 11:13:00,23.3,7.5,30.83,SSE,152,7.0,10.0,50,0.00,,,0.00,HR-IXPWINDi_r2_v1.2.,2015-02-28 16:13:00,
2015-02-28 11:18:00,23.3,7.9,30.83,South,187,6.0,10.0,51,0.00,,,0.00,HR-IXPWINDi_r2_v1.2.,2015-02-28 16:18:00,
2015-02-28 11:23:00,23.4,8.8,30.83,SSW,213,5.0,10.0,53,0.00,,,0.00,HR-IXPWINDi_r2_v1.2.,2015-02-28 16:23:00,
2015-02-28 11:28:00,23.5,8.1,30.83,SSE,160,6.0,10.0,51,0.00,,,0.00,HR-IXPWINDi_r2_v1.2.,2015-02-28 16:28:00,
2015-02-28 11:33:00,23.3,7.9,30.83,SSW,192,6.0,10.0,51,0.00,,,0.00,HR-IXPWINDi_r2_v1.2.,2015-02-28 16:33:00,
2015-02-28 11:38:00,23.4,8.0,30.83,SSE,164,8.0,10.0,51,0.00,,,0.00,HR-IXPWINDi_r2_v1.2.,2015-02-28 16:38:00,
2015-02-28 11:43:00,23.4,8.0,30.83,SSW,203,7.0,9.0,51,0.00,,,0.00,HR-IXPWINDi_r2_v1.2.,2015-02-28 16:43:00,
2015-02-28 11:48:00,23.4,9.3,30.83,South,186,11.0,12.0,54,0.00,,,0.00,HR-IXPWINDi_r2_v1.2.,2015-02-28 16:48:00,
2015-02-28 11:53:00,23.6,10.2,30.82,SW,225,7.0,13.0,56,0.00,,,0.00,HR-IXPWINDi_r2_v1.2.,2015-02-28 16:53:00,
2015-02-28 11:58:00,23.6,8.6,30.82,SSW,213,7.0,13.0,52,0.00,,,0.00,HR-IXPWINDi_r2_v1.2.,2015-02-28 16:58:00,
2015-02-28 12:03:00,23.6,9.0,30.82,South,177,10.0,13.0,53,0.00,,,0.00,HR-IXPWINDi_r2_v1.2.,2015-02-28 17:03:00,
2015-02-28 12:08:00,23.8,11.2,30.82,South,175,10.0,16.0,58,0.00,,,0.00,HR-IXPWINDi_r2_v1.2.,2015-02-28 17:08:00,
2015-02-28 12:13:00,23.8,9.6,30.82,SW,214,9.0,16.0,54,0.00,,,0.00,HR-IXPWINDi_r2_v1.2.,2015-02-28 17:13:00,
2015-02-28 12:18:00,23.7,9.5,30.82,SSW,194,9.0,16.0,54,0.00,,,0.00,HR-IXPWINDi_r2_v1.2.,2015-02-28 17:18:00,
2015-02-28 12:23:00,23.9,9.7,30.81,South,175,11.0,12.0,54,0.00,,,0.00,HR-IXPWINDi_r2_v1.2.,2015-02-28 17:23:00,
2015-02-28 12:28:00,23.9,9.3,30.81,SSW,213,8.0,15.0,53,0.00,,,0.00,HR-IXPWINDi_r2_v1.2.,2015-02-28 17:28:00,
2015-02-28 12:33:00,24.1,8.2,30.81,South,186,11.0,15.0,50,0.00,,,0.00,HR-IXPWINDi_r2_v1.2.,2015-02-28 17:33:00,
2015-02-28 12:38:00,24.2,8.3,30.81,SSW,192,10.0,14.0,50,0.00,,,0.00,HR-IXPWINDi_r2_v1.2.,2015-02-28 17:38:00,
2015-02-28 12:43:00,24.2,9.2,30.81,South,191,10.0,17.0,52,0.00,,,0.00,HR-IXPWINDi_r2_v1.2.,2015-02-28 17:43:00,
2015-02-28 12:48:00,24.3,9.7,30.81,South,186,9.0,17.0,53,0.00,,,0.00,HR-IXPWINDi_r2_v1.2.,2015-02-28 17:48:00,
2015-02-28 12:53:00,24.5,10.3,30.81,SSE,163,14.0,16.0,54,0.00,,,0.00,HR-IXPWINDi_r2_v1.2.,2015-02-28 17:53:00,
2015-02-28 12:58:00,24.4,9.8,30.80,South,170,17.0,17.0,53,0.00,,,0.00,HR-IXPWINDi_r2_v1.2.,2015-02-28 17:58:00,
2015-02-28 13:03:00,24.4,10.6,30.80,SSW,201,9.0,17.0,55,0.00,,,0.00,HR-IXPWINDi_r2_v1.2.,2015-02-28 18:03:00,
2015-02-28 13:08:00,24.6,10.4,30.80,South,181,14.0,17.0,54,0.00,,,0.00,HR-IXPWINDi_r2_v1.2.,2015-02-28 18:08:00,
2015-02-28 13:13:00,24.7,11.3,30.80,South,184,13.0,17.0,56,0.00,,,0.00,HR-IXPWINDi_r2_v1.2.,2015-02-28 18:13:00,
2015-02-28 13:18:00,24.8,11.4,30.80,SSW,193,11.0,17.0,56,0.00,,,0.00,HR-IXPWINDi_r2_v1.2.,2015-02-28 18:18:00,
2015-02-28 13:23:00,24.6,11.6,30.79,SSW,198,12.0,16.0,57,0.00,,,0.00,HR-IXPWINDi_r2_v1.2.,2015-02-28 18:23:00,
2015-02-28 13:28:00,24.5,12.3,30.79,SW,218,10.0,16.0,59,0.00,,,0.00,HR-IXPWINDi_r2_v1.2.,2015-02-28 18:28:00,
2015-02-28 13:33:00,24.7,12.4,30.79,SSW,202,8.0,14.0,59,0.00,,,0.00,HR-IXPWINDi_r2_v1.2.,2015-02-28 18:33:00,
2015-02-28 13:38:00,24.8,11.0,30.79,SSW,212,9.0,14.0,55,0.00,,,0.00,HR-IXPWINDi_r2_v1.2.,2015-02-28 18:38:00,
2015-02-28 13:43:00,24.7,10.9,30.78,SW,218,10.0,14.0,55,0.00,,,0.00,HR-IXPWINDi_r2_v1.2.,2015-02-28 18:43:00,
2015-02-28 13:48:00,24.9,11.9,30.78,SSW,199,8.0,13.0,57,0.00,,,0.00,HR-IXPWINDi_r2_v1.2.,2015-02-28 18:48:00,
2015-02-28 13:53:00,24.9,10.2,30.77,SSW,203,12.0,14.0,53,0.00,,,0.00,HR-IXPWINDi_r2_v1.2.,2015-02-28 18:53:00,
2015-02-28 13:58:00,25.0,11.6,30.77,SW,215,9.0,14.0,56,0.00,,,0.00,HR-IXPWINDi_r2_v1.2.,2015-02-28 18:58:00,
2015-02-28 14:03:00,25.0,9.9,30.77,SSW,213,10.0,13.0,52,0.00,,,0.00,HR-IXPWINDi_r2_v1.2.,2015-02-28 19:03:00,
2015-02-28 14:08:00,25.2,11.3,30.77,SW,214,11.0,13.0,55,0.00,,,0.00,HR-IXPWINDi_r2_v1.2.,2015-02-28 19:08:00,
2015-02-28 14:13:00,25.3,12.6,30.77,SSE,159,17.0,19.0,58,0.00,,,0.00,HR-IXPWINDi_r2_v1.2.,2015-02-28 19:13:00,
2015-02-28 14:18:00,25.2,11.3,30.77,SSW,203,12.0,19.0,55,0.00,,,0.00,HR-IXPWINDi_r2_v1.2.,2015-02-28 19:18:00,
2015-02-28 14:23:00,25.2,11.7,30.77,South,189,16.0,19.0,56,0.00,,,0.00,HR-IXPWINDi_r2_v1.2.,2015-02-28 19:23:00,
2015-02-28 14:28:00,25.3,13.0,30.77,SW,215,9.0,17.0,59,0.00,,,0.00,HR-IXPWINDi_r2_v1.2.,2015-02-28 19:28:00,
2015-02-28 14:33:00,25.4,12.7,30.77,SW,216,12.0,17.0,58,0.00,,,0.00,HR-IXPWINDi_r2_v1.2.,2015-02-28 19:33:00,
2015-02-28 14:38:00,25.3,13.4,30.76,SSW,199,12.0,17.0,60,0.00,,,0.00,HR-IXPWINDi_r2_v1.2.,2015-02-28 19:38:00,
2015-02-28 14:43:00,25.4,13.9,30.76,SW,215,13.0,15.0,61,0.00,,,0.00,HR-IXPWINDi_r2_v1.2.,2015-02-28 19:43:00,
2015-02-28 14:48:00,25.6,14.4,30.76,SW,221,10.0,15.0,62,0.00,,,0.00,HR-IXPWINDi_r2_v1.2.,2015-02-28 19:48:00,
2015-02-28 14:53:00,25.6,14.8,30.76,South,177,13.0,15.0,63,0.00,,,0.00,HR-IXPWINDi_r2_v1.2.,2015-02-28 19:53:00,
2015-02-28 14:58:00,25.5,14.0,30.76,South,185,10.0,16.0,61,0.00,,,0.00,HR-IXPWINDi_r2_v1.2.,2015-02-28 19:58:00,
2015-02-28 15:03:00,25.9,15.4,30.76,SW,221,12.0,16.0,64,0.00,,,0.00,HR-IXPWINDi_r2_v1.2.,2015-02-28 20:03:00,
2015-02-28 15:08:00,26.0,15.5,30.76,SSW,210,10.0,14.0,64,0.00,,,0.00,HR-IXPWINDi_r2_v1.2.,2015-02-28 20:08:00,
2015-02-28 15:13:00,26.1,14.9,30.76,SSW,205,9.0,14.0,62,0.00,,,0.00,HR-IXPWINDi_r2_v1.2.,2015-02-28 20:13:00,
2015-02-28 15:18:00,26.4,15.9,30.76,SW,219,11.0,14.0,64,0.00,,,0.00,HR-IXPWINDi_r2_v1.2.,2015-02-28 20:18:00,
2015-02-28 15:23:00,26.4,15.5,30.75,SSW,198,11.0,14.0,63,0.00,,,0.00,HR-IXPWINDi_r2_v1.2.,2015-02-28 20:23:00,
2015-02-28 15:28:00,26.5,15.6,30.75,SSW,208,11.0,15.0,63,0.00,,,0.00,HR-IXPWINDi_r2_v1.2.,2015-02-28 20:28:00,
2015-02-28 15:33:00,26.6,15.7,30.75,SSW,210,8.0,15.0,63,0.00,,,0.00,HR-IXPWINDi_r2_v1.2.,2015-02-28 20:33:00,
2015-02-28 15:38:00,26.7,15.8,30.75,SSW,199,8.0,15.0,63,0.00,,,0.00,HR-IXPWINDi_r2_v1.2.,2015-02-28 20:38:00,
2015-02-28 15:43:00,26.8,15.6,30.75,SW,219,12.0,15.0,62,0.00,,,0.00,HR-IXPWINDi_r2_v1.2.,2015-02-28 20:43:00,
2015-02-28 15:48:00,26.9,16.4,30.75,SSW,205,12.0,19.0,64,0.00,,,0.00,HR-IXPWINDi_r2_v1.2.,2015-02-28 20:48:00,
2015-02-28 15:53:00,26.9,15.3,30.75,SSW,210,10.0,19.0,61,0.00,,,0.00,HR-IXPWINDi_r2_v1.2.,2015-02-28 20:53:00,
2015-02-28 15:58:00,26.9,15.6,30.75,SSW,202,11.0,18.0,62,0.00,,,0.00,HR-IXPWINDi_r2_v1.2.,2015-02-28 20:58:00,
2015-02-28 16:03:00,26.8,15.6,30.75,SW,217,17.0,18.0,62,0.00,,,0.00,HR-IXPWINDi_r2_v1.2.,2015-02-28 21:03:00,
2015-02-28 16:08:00,26.8,15.9,30.75,SSW,199,10.0,18.0,63,0.00,,,0.00,HR-IXPWINDi_r2_v1.2.,2015-02-28 21:08:00,
2015-02-28 16:13:00,26.8,15.6,30.75,SSW,196,13.0,19.0,62,0.00,,,0.00,HR-IXPWINDi_r2_v1.2.,2015-02-28 21:13:00,
2015-02-28 16:18:00,26.8,16.6,30.75,SSW,198,14.0,19.0,65,0.00,,,0.00,HR-IXPWINDi_r2_v1.2.,2015-02-28 21:18:00,
2015-02-28 16:23:00,26.9,16.7,30.75,SSW,206,12.0,19.0,65,0.00,,,0.00,HR-IXPWINDi_r2_v1.2.,2015-02-28 21:23:00,
2015-02-28 16:28:00,26.9,17.1,30.75,SSW,206,10.0,17.0,66,0.00,,,0.00,HR-IXPWINDi_r2_v1.2.,2015-02-28 21:28:00,
2015-02-28 16:33:00,27.0,17.2,30.76,SW,232,12.0,17.0,66,0.00,,,0.00,HR-IXPWINDi_r2_v1.2.,2015-02-28 21:33:00,
2015-02-28 16:38:00,27.1,17.6,30.75,SW,219,12.0,20.0,67,0.00,,,0.00,HR-IXPWINDi_r2_v1.2.,2015-02-28 21:38:00,
2015-02-28 16:43:00,27.2,17.4,30.75,WSW,239,12.0,20.0,66,0.00,,,0.00,HR-IXPWINDi_r2_v1.2.,2015-02-28 21:43:00,
2015-02-28 16:48:00,27.1,17.6,30.75,SW,228,11.0,18.0,67,0.00,,,0.00,HR-IXPWINDi_r2_v1.2.,2015-02-28 21:48:00,
2015-02-28 16:53:00,27.1,17.6,30.75,SW,227,17.0,18.0,67,0.00,,,0.00,HR-IXPWINDi_r2_v1.2.,2015-02-28 21:53:00,
2015-02-28 16:58:00,26.9,17.1,30.75,SW,235,14.0,19.0,66,0.00,,,0.00,HR-IXPWINDi_r2_v1.2.,2015-02-28 21:58:00,
2015-02-28 17:03:00,26.8,17.0,30.75,SSW,203,8.0,19.0,66,0.00,,,0.00,HR-IXPWINDi_r2_v1.2.,2015-02-28 22:03:00,
2015-02-28 17:08:00,26.7,16.9,30.76,SW,228,10.0,18.0,66,0.00,,,0.00,HR-IXPWINDi_r2_v1.2.,2015-02-28 22:08:00,
2015-02-28 17:13:00,26.7,17.6,30.76,SW,235,10.0,18.0,68,0.00,,,0.00,HR-IXPWINDi_r2_v1.2.,2015-02-28 22:13:00,
2015-02-28 17:18:00,26.6,17.1,30.76,SW,234,11.0,18.0,67,0.00,,,0.00,HR-IXPWINDi_r2_v1.2.,2015-02-28 22:18:00,
2015-02-28 17:23:00,26.3,16.9,30.75,WSW,237,12.0,17.0,67,0.00,,,0.00,HR-IXPWINDi_r2_v1.2.,2015-02-28 22:23:00,
2015-02-28 17:28:00,25.9,16.5,30.76,SW,225,6.0,15.0,67,0.00,,,0.00,HR-IXPWINDi_r2_v1.2.,2015-02-28 22:28:00,
2015-02-28 17:33:00,25.6,16.2,30.76,WSW,254,12.0,16.0,67,0.00,,,0.00,HR-IXPWINDi_r2_v1.2.,2015-02-28 22:33:00,
2015-02-28 17:38:00,25.2,15.8,30.76,WSW,250,9.0,16.0,67,0.00,,,0.00,HR-IXPWINDi_r2_v1.2.,2015-02-28 22:38:00,
2015-02-28 17:43:00,24.9,15.9,30.76,WSW,241,9.0,12.0,68,0.00,,,0.00,HR-IXPWINDi_r2_v1.2.,2015-02-28 22:43:00,
2015-02-28 17:48:00,24.7,16.3,30.76,WSW,237,8.0,13.0,70,0.00,,,0.00,HR-IXPWINDi_r2_v1.2.,2015-02-28 22:48:00,
2015-02-28 17:53:00,24.6,15.9,30.76,WSW,239,8.0,15.0,69,0.00,,,0.00,HR-IXPWINDi_r2_v1.2.,2015-02-28 22:53:00,
2015-02-28 17:58:00,24.6,15.9,30.76,West,265,7.0,15.0,69,0.00,,,0.00,HR-IXPWINDi_r2_v1.2.,2015-02-28 22:58:00,
2015-02-28 18:03:00,24.5,15.8,30.77,WSW,249,6.0,13.0,69,0.00,,,0.00,HR-IXPWINDi_r2_v1.2.,2015-02-28 23:03:00,
2015-02-28 18:08:00,24.4,15.7,30.77,WSW,244,6.0,13.0,69,0.00,,,0.00,HR-IXPWINDi_r2_v1.2.,2015-02-28 23:08:00,
2015-02-28 18:13:00,24.2,15.9,30.77,WSW,248,5.0,12.0,70,0.00,,,0.00,HR-IXPWINDi_r2_v1.2.,2015-02-28 23:13:00,
2015-02-28 18:18:00,24.0,15.7,30.77,WSW,251,4.0,8.0,70,0.00,,,0.00,HR-IXPWINDi_r2_v1.2.,2015-02-28 23:18:00,
2015-02-28 18:23:00,24.0,16.0,30.77,SW,230,3.0,8.0,71,0.00,,,0.00,HR-IXPWINDi_r2_v1.2.,2015-02-28 23:23:00,
2015-02-28 18:28:00,23.8,15.5,30.77,WSW,250,6.0,8.0,70,0.00,,,0.00,HR-IXPWINDi_r2_v1.2.,2015-02-28 23:28:00,
2015-02-28 18:33:00,23.6,15.6,30.78,WSW,248,4.0,7.0,71,0.00,,,0.00,HR-IXPWINDi_r2_v1.2.,2015-02-28 23:33:00,
2015-02-28 18:38:00,23.4,15.7,30.78,WSW,242,3.0,6.0,72,0.00,,,0.00,HR-IXPWINDi_r2_v1.2.,2015-02-28 23:38:00,
2015-02-28 18:43:00,23.4,15.7,30.78,WSW,251,4.0,6.0,72,0.00,,,0.00,HR-IXPWINDi_r2_v1.2.,2015-02-28 23:43:00,
2015-02-28 18:48:00,23.2,15.5,30.78,WSW,252,4.0,6.0,72,0.00,,,0.00,HR-IXPWINDi_r2_v1.2.,2015-02-28 23:48:00,
2015-02-28 18:53:00,22.9,15.3,30.78,WSW,250,3.0,6.0,72,0.00,,,0.00,HR-IXPWINDi_r2_v1.2.,2015-02-28 23:53:00,
2015-02-28 18:58:00,22.7,15.1,30.78,WSW,248,3.0,5.0,72,0.00,,,0.00,HR-IXPWINDi_r2_v1.2.,2015-02-28 23:58:00,
2015-02-28 19:03:00,22.6,15.0,30.78,West,259,3.0,4.0,72,0.00,,,0.00,HR-IXPWINDi_r2_v1.2.,2015-03-01 00:03:00,
2015-02-28 19:08:00,22.5,14.9,30.78,West,260,2.0,4.0,72,0.00,,,0.00,HR-IXPWINDi_r2_v1.2.,2015-03-01 00:08:00,
2015-02-28 19:13:00,22.2,14.6,30.77,West,272,1.0,4.0,72,0.00,,,0.00,HR-IXPWINDi_r2_v1.2.,2015-03-01 00:13:00,
2015-02-28 19:18:00,22.1,14.5,30.77,West,267,1.0,3.0,72,0.00,,,0.00,HR-IXPWINDi_r2_v1.2.,2015-03-01 00:18:00,
2015-02-28 19:23:00,21.9,14.3,30.78,West,271,1.0,3.0,72,0.00,,,0.00,HR-IXPWINDi_r2_v1.2.,2015-03-01 00:23:00,
2015-02-28 19:28:00,21.8,14.5,30.78,West,271,1.0,1.0,73,0.00,,,0.00,HR-IXPWINDi_r2_v1.2.,2015-03-01 00:28:00,
2015-02-28 19:33:00,21.7,14.4,30.78,WNW,286,1.0,2.0,73,0.00,,,0.00,HR-IXPWINDi_r2_v1.2.,2015-03-01 00:33:00,
2015-02-28 19:38:00,21.5,13.9,30.78,West,279,2.0,2.0,72,0.00,,,0.00,HR-IXPWINDi_r2_v1.2.,2015-03-01 00:38:00,